CZ-4C DEB, 43281

Orbit data source: Space-Track

CZ-4C DEB, 43281 is space debris in LEO originally from a launch on Tue, 10 Apr 2018 UTC launched from the Jiuquan Satellite Launch Center, China (JSC). Debris objects in space refer to the collection of defunct objects orbiting the Earth. Examples of debris include non-operational satellites, rocket bodies, and fragments generated from explosions, collisions, or faulty payload assembly.

Loading next visibility...
Identifier
43281, 2018-034G
Orbit
LEO
Last TLE update
22 hours ago
Origin
Manufacturer
Unknown
Mission
Spacecraft
Bus & Motor
Unknown
Mass
Unknown
Launch date (UTC)
2018-04-10 (7 years ago)
Launch vehicle
Unknown
Launch site
Jiuquan Satellite Launch Center, China (JSC)
Object type
Payload
Rocket body
Debris
Shape & HBR
Unknown
Radar Cross Section
Large (>1 m²)

Expand to show TLE details & history

TLE from 22 hours ago
0 CZ-4C DEB
1 43281U 18034G   25183.59905201 -.00000040  00000-0  71795-4 0  9992
2 43281  63.3993 281.8233 0240646   6.8101 353.6098 13.44643128290661
Epoch: 2025-07-02T14:22Z
TLE epoch observation values (Epoch: 2025-07-02T14:22:38.093Z)
Latitude
0.00001°
Longitude
145.28674°
Altitude
915.188 km
Speed
7.483 km/s
True Right ascension
18h 47m 17s
True Declination
0° 00' 00"
Sunlit
Object was in full shadow at epoch
Visualization orbit readout
Latitude
62.36941°
Longitude
-109.18516°
Altitude
1,101.674 km
Speed
7.308 km/s
Apparent Right ascension
09h 18m 22s
Apparent Declination
46° 48' 51"
Sunlit
Object is in daylight
Visualization observer readout
Local Sidereal Time
00:02:38
Azimuth
26.791° NE
Elevation
4.135°
Doppler factor
1
Orbital elements
Apogee altitude
1,270.6 km
Perigee altitude
911.123 km
Semi-major axis
7,468.999 km
Eccentricity
0.02406
Inclination
63.3993°
RAAN
281.8233°
Arg. of periapsis
6.8101°
True anomaly
Unknown
Mean anomaly
353.6098°
Eccentric anomaly
Unknown
Mean motion
3.3624 °/min
Orbital period
107.07 mins
BSTAR
0.000071795
Loading maneuver chart data...
Loading SW <> Apogee altitude chart data...
Loading historical data...
Loading historical data...
Loading historical data...
Loading historical data...
Loading historical data...
Loading historical data...
Loading historical data...

CZ-4C DEB Visibility forecast

Observer location: undefined°, undefined°

Span
Click to sort rows by Start time (UTC) header in descending order
Start Az.
Max El. time (UTC)
Max El. Az.
Max El.
End time (UTC)
End Az.
5 mins2025-07-03 14:03:00.113Z358.835° N2025-07-03 14:06:00.113Z24.879° NE12.255°2025-07-03 14:08:00.113Z41.649° NE
12 mins2025-07-03 15:53:00.113Z343.524° N2025-07-03 15:58:00.113Z37.895° NE31.468°2025-07-03 16:05:00.113Z110.231° ESE
12 mins2025-07-03 17:44:00.113Z312.245° NW2025-07-03 17:49:00.113Z251.828° W38.658°2025-07-03 17:56:00.113Z170.826° S
10 mins2025-07-04 07:33:00.113Z183.633° SSW2025-07-04 07:38:00.113Z105.552° ESE35.744°2025-07-04 07:43:00.113Z46.74° ENE
10 mins2025-07-04 09:24:00.113Z259.185° W2025-07-04 09:28:00.113Z309.649° NW28.72°2025-07-04 09:34:00.113Z19.441° NNE
|